Flag for Canada Weather past 2 weeks in Arviat, Nunavut, Canada

Now
57 °F

Passing clouds.


Feels Like: 55 °F
Forecast: 49 / 55 °F
Wind: 10 mph from Northeast

Location: Arviat Airport

Current Time: Jul 30, 2015 at 8:44:15 PM

Latest Report: Jul 30, 2015 at 8:00 PM


Visibility: 9 mi

Pressure: 29.69 "Hg

Humidity: 82%

Dew point: 52 °F

Location of ArviatLocation

Historic Weather in Arviat — Graph

°F

Arviat temperature yesterday

Maximum temperature yesterday: 54 °F (at 12:00 PM)
Minimum temperature yesterday: 48 °F (at 12:00 AM)
Average temperature yesterday: 51 °F

Past Weeks' High & Low Weather Summary

 TemperatureHumidityPressure
High66 °F (Jul 21, 2:00 PM)100% (Jul 16, 5:53 AM)29.95 "Hg (Jul 16, 5:53 AM)
Low43 °F (Jul 17, 2:00 AM)43% (Jul 20, 4:00 PM)29.47 "Hg (Jul 19, 4:00 AM)
Average51 °F91%29.75 "Hg
* Reported Jul 15 7:00 PM — Jul 30 7:00 PM, Arviat, Weather by CustomWeather, © 2015

Note: Actual official high and low records may vary slightly from our data, if they occured in-between our weather recording intervals... More about our weather records

Advertising

Arviat weather history for previous 24 hours

 ConditionsComfort  
Time TempWeatherWind HumidityBarometerVisibility
7:00 PM
Thu, Jul 30
57 °FScattered clouds.10 mph82%29.69 "Hg9 mi
6:00 PM59 °FPassing clouds.15 mph77%29.68 "Hg9 mi
5:00 PM57 °FPartly sunny.12 mph82%29.68 "Hg15 mi
4:00 PM59 °FOvercast.8 mph82%29.67 "Hg15 mi
3:00 PM63 °FScattered showers. More clouds than sun.16 mph73%29.67 "Hg15 mi
2:02 PM63 °FSprinkles. Overcast.21 mph73%29.67 "Hg15 mi
1:00 PM57 °FMore clouds than sun.9 mph88%29.68 "Hg15 mi
12:00 PM57 °FPartly sunny.15 mph88%29.68 "Hg15 mi
11:01 AM61 °FPartly sunny.14 mph77%29.68 "Hg15 mi
10:00 AM61 °FBroken clouds.16 mph77%29.67 "Hg15 mi
9:00 AM57 °FPartly sunny.16 mph88%29.67 "Hg15 mi
8:00 AM54 °FMostly cloudy.12 mph100%29.68 "Hg12 mi
7:46 AM54 °FCloudy.10 mph100%29.68 "Hg10 mi
7:00 AM52 °FFog.10 mph100%29.69 "Hg6 mi
6:02 AM52 °FFog.7 mph100%29.69 "Hg1 mi
5:00 AM52 °FLow clouds.9 mph100%29.68 "Hg9 mi
4:02 AM52 °FFog.10 mph100%29.69 "Hg3 mi
3:00 AM52 °FLight rain. Fog.10 mph100%29.68 "Hg1 mi
2:00 AM50 °FLight rain. Fog.9 mph100%29.69 "Hg0 mi
1:00 AM48 °FLight rain. Fog.14 mph100%29.70 "Hg1 mi
12:00 AM50 °FLight rain. Fog.15 mph100%29.70 "Hg1 mi
11:00 PM
Wed, Jul 29
50 °FLight rain. Fog.16 mph100%29.71 "Hg1 mi
10:00 PM50 °FLight rain. Fog.16 mph100%29.70 "Hg1 mi
9:00 PM52 °FLow clouds.17 mph100%29.70 "Hg9 mi
8:00 PM54 °FOvercast.15 mph94%29.70 "Hg9 mi
Weather by CustomWeather, © 2015

See weather overviewHow to use our weather pages